User: anonymous   Login
Location: Ellerstadt
(49.4644°N, 8.2615°E)
Time: 12:37:04
(UTC+00:00)
Language:

Gbstr 26 Del rocket - Orbit

View from above orbital plane
View from above orbital plane
View from above satellite
View from above satellite

Ground track
Ground track

The orbit data is extracted from the following two-line orbital elements,

1 25876U 99041E   21138.16882448 -.00000117  00000-0  19298-4 0  9990
2 25876  51.7683  68.8596 0530386 240.3568 114.3541 14.04570950115680
Epoch (UTC): 18 May 2021 04:03:06
Eccentricity: 0.0530386
inclination: 51.7683°
perigee height: 493 km
apogee height: 1263 km
right ascension of ascending node: 68.8596°
argument of perigee: 240.3568°
revolutions per day: 14.04570950
mean anomaly at epoch: 114.3541°
orbit number at epoch: 11568

The dashed part of the orbit path shows where the satellite is in the earth's shadow,  

DLR